Jendouba, Tunisia

7:37 AM CET on October 23, 2019 (GMT +0100)
Jendouba

Weather History for DTTN - August, 2019

Change the Weather History Date:

Thursday, August 15, 2019

  Actual Average (WUND) Record (WUND)
Temperature  
Mean Temperature 76 °F -  
Max Temperature 88 °F 93 °F - (-1)
Min Temperature 64 °F 64 °F - (-1)
Cooling Degree Days 11    
Growing Degree Days 26 (Base 50)    
Moisture  
Dew Point 61 °F    
Average Humidity 56    
Maximum Humidity 83    
Minimum Humidity 29    
Precipitation  
Precipitation 0.00 in 0.03 in - ()
Sea Level Pressure  
Sea Level Pressure 30.06 in    
Wind  
Wind Speed 6 mph ()    
Max Wind Speed 12 mph    
Max Gust Speed -    
Visibility 6.2 miles    
Events      
Averages and records for this station are not official NWS values.
T = Trace of Precipitation, MM = Missing Value Source: Averaged Metar Reports

Daily Weather History Graph

Daily Weather History Graph

Search for Another Location

Airport or City:

Astronomy

Aug. 15, 2019 Rise Set
Actual Time 5:42 AM CET 7:16 PM CET
Civil Twilight 5:14 AM CET 7:43 PM CET
Nautical Twilight 4:41 AM CET 8:16 PM CET
Astronomical Twilight 4:06 AM CET 8:50 PM CET
Moon 7:34 PM CET (8/15) 5:22 AM CET (8/15)
Length of Visible Light 14h 28m
Length of Day
13h 33m
Full, 100% of the Moon is Illuminated
Aug 15
Full
Aug 15
Full
Aug 23
Last Quarter
Aug 30
New
Sep 6
First Quarter

Hourly Weather History & Observations

Time (CET) Temp. Heat Index Dew Point Humidity Pressure Visibility Wind Dir Wind Speed Gust Speed Precip Events Conditions
12:00 AM 68.0 °F - 60.8 °F 78% 30.09 in 5.0 mi SW 3.5 mph - N/A   Partly Cloudy
1:00 AM 68 °F - 61 °F 71% 30.08 in 5 mi WSW 2.3 mph - -   Scattered Clouds
3:00 AM 66.2 °F - 60.8 °F 83% 30.06 in 5.0 mi SW 4.6 mph - N/A   Partly Cloudy
4:00 AM 68 °F - 61 °F 72% 30.06 in 5 mi WSW 5.8 mph - -   Scattered Clouds
4:00 AM 68.0 °F - 60.8 °F 78% 30.06 in 5.0 mi WSW 5.8 mph - N/A   Partly Cloudy
5:00 AM 69.8 °F - 60.8 °F 73% 30.06 in 5.0 mi WSW 6.9 mph - N/A   Partly Cloudy
6:00 AM 64.4 °F - 59.0 °F 83% 30.06 in 5.0 mi SSW 5.8 mph - N/A   Partly Cloudy
7:00 AM 68 °F - 61 °F 71% 30.09 in 9 mi SSW 6.9 mph - -   Scattered Clouds
7:00 AM 68.0 °F - 60.8 °F 78% 30.09 in 6.2 mi SSW 6.9 mph - N/A   Partly Cloudy
8:00 AM 75.2 °F - 62.6 °F 65% 30.09 in 6.2 mi SW 8.1 mph - N/A   Partly Cloudy
9:00 AM 78.8 °F - 62.6 °F 57% 30.09 in 6.2 mi West 6.9 mph - N/A   Partly Cloudy
10:00 AM 80 °F - 62 °F 43% 30.07 in 9 mi West 5.8 mph - -   Partly Cloudy
11:00 AM 84.2 °F 85.0 °F 62.6 °F 48% 30.09 in 6.2 mi NW 5.8 mph - N/A   Scattered Clouds
12:00 PM 86.0 °F 86.1 °F 60.8 °F 43% 30.06 in 6.2 mi NNW 6.9 mph - N/A   Scattered Clouds
1:00 PM 87 °F - 59 °F 29% 30.04 in 9 mi NNW 9.2 mph - -   Partly Cloudy
1:00 PM 87.8 °F 87.1 °F 59.0 °F 38% 30.04 in 6.2 mi NW 8.1 mph - N/A   Scattered Clouds
2:00 PM 87.8 °F 87.6 °F 60.8 °F 40% 30.01 in 6.2 mi NNW 11.5 mph - N/A   Scattered Clouds
3:00 PM 87.8 °F 87.6 °F 60.8 °F 40% 30.01 in 6.2 mi NNW 11.5 mph - N/A   Scattered Clouds
4:00 PM 86 °F - 63 °F 37% 30.01 in 6 mi NNW 9.2 mph - -   Partly Cloudy
4:00 PM 86.0 °F 86.6 °F 62.6 °F 45% 30.01 in 6.2 mi NNW 9.2 mph - N/A   Scattered Clouds
5:00 PM 86.0 °F 86.6 °F 62.6 °F 45% 30.01 in 6.2 mi NNW 9.2 mph - N/A   Scattered Clouds
6:00 PM 84.2 °F 83.8 °F 59.0 °F 42% 30.01 in 6.2 mi NNW 9.2 mph - N/A   Scattered Clouds
7:00 PM 81 °F - 54 °F 29% 30.04 in 6 mi NNW 11.5 mph - -   Scattered Clouds
7:00 PM 80.6 °F 80.5 °F 55.4 °F 42% 30.04 in 6.2 mi NNW 11.5 mph - N/A   Partly Cloudy
8:00 PM 78.8 °F - 59.0 °F 51% 30.06 in - NNW 4.6 mph - N/A   Clear
9:00 PM 77.0 °F - 60.8 °F 57% 30.09 in - NNW 4.6 mph - N/A   Clear
10:00 PM 75 °F - 62 °F 54% 30.10 in 6 mi NW 4.6 mph - -  
11:00 PM 73.4 °F - 60.8 °F 65% 30.06 in - Calm Calm - N/A   Clear